Погода в Коро

Фиджи     17°18′25″S   179°24′33″E
темп.,
°C
ветер,
м/с
пор.,
м/с
влажн.,
%
обл.,
%
осадки,
мм/ч
давл.,
гПа
погр.,
м
21 апреля, ср
ср2100:00+28в66745 0.1 1014810
03:00+27в667530 0.0 1013763
06:00+27вюв667587 0.0 1013790
09:00+28в66738 0.0 1014861
12:00+28в55725 0.0 1013848
15:00+28в56712 0.0 1011886
18:00+28вюв66735 0.0 1012912
21:00+28в667512 0.0 1014828
22 апреля, чт
чт2200:00+27вюв557750 0.0 1013771
03:00+27юв667799 0.1 1012796
06:00+27вюв677899 1.0 1012755
09:00+27вюв677916 1.0 1014795
12:00+28в66806 1.1 1012741
15:00+28в667931 0.3 1010708
18:00+28вюв677979 0.8 1011692
21:00+28в668063 0.0 1013753
23 апреля, пт
пт2300:00+28в668119 1.3 1012623
03:00+28в678138 2.3 1011714
06:00+28в6679100 4.3 1012741
09:00+28в567969 0.3 1013679
12:00+28в557980 0.8 1012662
15:00+28вюв55799 0.1 1010675
18:00+28вюв668110 1.8 1011602
21:00+28в67809 1.1 1013729
24 апреля, сб
сб2400:00+28в5679100 1.1 1012693
03:00+28вюв45816 0.3 1012558
06:00+28вюв668099 1.8 1012682
09:00+28вюв568094 0.4 1014692
12:00+28вюв557986 0.4 1012714
15:00+28вюв457894 0.1 1011622
18:00+28вюв668088 1.8 1012634
21:00+28вюв66785 0.4 1013734
25 апреля, вс
вс2500:00+28вюв567857 0.7 1013734
03:00+27в557776 0.6 1011731
06:00+27в4478100 0.7 1012614
09:00+27в447899 0.2 1014605
12:00+27в4478100 0.4 1012633
15:00+27вюв447810 0.1 1010672
18:00+27юв447911 0.3 1011654
21:00+27вюв4580100 0.5 1013564